Find Starlink 32877

NORAD ID: 62960 Int'l Des: 2025-029 Owner: SPXS Country: US Constellation: starlink operational
LEOCIRCULAR

当前视图

正在加载3D地球...

About Starlink 32877

Starlink 32877 (NORAD 62960) is a starlink constellation satellite (v2 mini) launched Feb 11, 2025 by SPXS of US. It operates in LEO, CIRCULAR orbit with a mass of 730.00 kg.

即将过境

Passes for default location (London). Set your location on the main map for personalized predictions.

高度历史

Loading altitude history...

两行轨道根数

1 62960U 25029N 26263.10776233 .00013578 00000-0 41235-3 0 9991
2 62960 53.1588 47.2899 0000825 99.1764 260.9332 15.34393718 91093
Epoch: Sep 20, 2026 • Age: 15 hours

当前状态

高度 469.5 km
远地点 / 近地点 N/A
速度 7.63 km/s
星下点 -23.32°S, 19.98°W
发射日期 Feb 11, 2025
运行时间 1.6 years
类型 internet

技术详情

分类 Payload
质量 730.00 kg
干质量 700.00 kg
长度 0.30 m
跨度 29.00 m
形状 ? Box + pan
制造商 SPXS
平台类型 Starlink V2M
阶段状态 In Orbit
所有者/国家 SPXS/US

Most Searched